Hourly Data Report for October 10, 2019

SAINT JOHN A
NEW BRUNSWICK
Current Station Operator: NAVCAN

45°18'58.000" N
65°53'24.000" W
108.80 m
8104901
71609
YSJ

Download Data

Hourly Data (October 2019)
Hourly Data Report for October 10, 2019
TIME
LST
Temp Definition
°C
Dew Point Definition
°C
Rel Hum Definition
%
Precip. Amount Definition
mm

Wind Dir Definition
10's deg

Wind Spd Definition
km/h
Visibility Definition
km
Stn Press Definition
kPa
Hmdx Definition


Wind Chill Definition


Weather Definition


00:00 5.9 3.8 86   3 12 24.1 101.75     LegendNANA
01:00 6.4 3.9 84   2 5 24.1 101.69     LegendNANA
02:00 6.9 4.4 84   33 3 24.1 101.65     Mostly Cloudy
03:00 4.3 3.4 94   36 1 24.1 101.64     LegendNANA
04:00 5.7 3.3 85   3 12 24.1 101.67     LegendNANA
05:00 5.0 2.4 83   6 4 24.1 101.68     Mostly Cloudy
06:00 5.5 2.2 80   7 8 24.1 101.68     LegendNANA
07:00 5.0 2.4 84   4 12 24.1 101.70     LegendNANA
08:00 6.9 3.2 77   3 13 24.1 101.75     Mainly Clear
09:00 10.7 5.7 71   6 21 24.1 101.73     LegendNANA
10:00 11.8 4.2 60   6 14 24.1 101.72     LegendNANA
11:00 13.8 4.3 52   2 16 24.1 101.69     Mostly Cloudy
12:00 15.7 3.1 43   4 13 24.1 101.68     LegendNANA
13:00 15.7 6.0 52   1 19 24.1 101.61     LegendNANA
14:00 16.2 5.7 49   3 14 24.1 101.58     Cloudy
15:00 15.6 6.6 55   10 13 24.1 101.55     LegendNANA
16:00 15.0 7.5 60   8 11 24.1 101.54     LegendNANA
17:00 13.2 7.9 70   8 13 24.1 101.55     Cloudy
18:00 10.6 6.2 74   4 14 24.1 101.54     LegendNANA
19:00 9.1 5.8 80   4 15 24.1 101.53     LegendNANA
20:00 8.2 5.7 85   4 14 24.1 101.55     Mostly Cloudy
21:00 7.2 5.5 88   3 13 24.1 101.59     LegendNANA
22:00 6.8 5.0 88   3 11 24.1 101.61     LegendNANA
23:00 5.6 4.2 91   4 12 24.1 101.61     Mostly Cloudy

Notes on Data Quality.

Legend

  • E = Estimated
  • M = Missing
  • NA = Not Available*
  • [empty] = Indicates an unobserved value
Date modified: